Wind_Speed
3 3 3 4 3 3 3 3 3 3 3 3 3 3 3 3 2 2 2 3 3 3 4 4 5 6 6 6 6 6 6 6 7 7 7 7 7 7 7 7 7 7 8
3 3 3 4 3 3 3 3 3 3 4 4 3 3 3 3 3 3 3 4 4 4 4 5 5 6 6 7 8 8 8 8 8 8 8 8 8 9 9 9 9 9 10
3 3 3 4 3 3 3 4 4 4 4 4 4 3 4 4 5 5 5 5 5 5 5 6 6 7 7 8 9 9 9 9 10 10 10 10 10 10 11 11 11 11 11
3 3 3 3 3 3 3 4 4 4 4 4 4 4 4 5 6 6 6 6 6 7 7 8 8 8 9 9 9 9 10 10 11 11 12 12 12 12 12 12 12 12 12
2 2 2 3 3 3 4 4 4 5 4 5 5 5 5 6 6 7 7 8 8 8 8 9 9 10 10 10 10 10 11 11 12 13 14 14 14 14 14 14 14 14 14
1 1 2 2 3 3 4 4 5 5 6 6 6 6 6 7 7 7 8 8 9 9 9 10 10 11 11 11 12 12 13 14 14 15 15 16 16 16 16 15 16 16 16
1 2 2 2 2 3 4 5 6 6 6 6 7 7 8 8 9 9 9 10 10 10 11 12 12 12 13 13 13 14 14 14 15 15 16 16 16 16 17 17 17 17 17
2 3 3 2 2 3 4 5 5 6 7 7 8 8 8 9 10 10 11 11 11 12 12 13 13 13 13 14 14 14 15 15 16 16 16 17 17 18 17 17 18 18 18
1 2 3 3 3 4 5 6 6 7 7 8 8 9 10 10 11 12 11 11 12 12 13 13 14 14 14 14 15 15 15 16 17 16 17 17 18 18 18 18 18 18 18
3 3 3 4 5 5 5 6 7 7 8 8 9 9 10 10 11 12 12 12 12 13 13 14 14 14 14 14 14 15 15 16 16 17 17 17 17 18 18 18 18 19 20
4 4 4 4 5 6 6 7 8 8 9 9 10 10 11 11 12 12 13 13 13 13 14 14 14 15 15 16 16 16 16 16 17 17 17 17 17 18 19 19 19 20 20
4 4 5 5 6 7 7 8 9 9 10 11 11 12 12 12 12 13 14 14 14 15 15 15 15 15 15 15 16 16 16 16 17 18 18 18 18 18 19 18 19 19 20
6 6 6 7 7 7 8 9 10 10 11 12 13 13 14 14 14 14 15 15 16 16 16 16 16 16 16 16 16 16 17 17 18 19 19 19 19 19 19 19 19 20 21
8 7 7 8 8 8 9 9 10 10 11 12 13 14 15 15 15 15 16 16 17 18 18 18 17 17 17 17 17 17 17 18 18 18 19 19 20 20 20 20 21 22 22
8 8 8 9 9 9 9 10 10 11 12 13 14 15 15 15 15 16 16 17 17 18 18 18 19 18 18 19 19 19 19 19 19 19 20 20 21 21 21 21 22 23 23
9 9 9 9 9 10 10 10 11 12 12 13 14 15 16 16 16 16 16 17 17 18 18 19 20 20 19 19 19 20 20 20 20 20 21 21 22 23 22 23 23 24 24
10 10 10 9 10 10 11 11 12 12 12 13 14 14 14 14 14 15 15 16 17 18 18 19 20 20 20 20 20 20 20 20 20 21 21 22 22 23 24 24 24 25 26
12 12 12 11 11 11 12 12 12 13 13 14 14 14 14 15 16 16 17 17 18 18 19 19 20 20 21 21 21 21 21 21 21 21 22 22 23 23 24 24 25 26 26
13 13 13 13 13 12 13 13 14 14 14 14 15 15 16 16 17 17 17 18 18 19 20 21 21 21 22 22 22 22 22 23 23 23 23 23 24 25 25 26 27 27 28
15 15 15 15 15 14 14 15 15 15 15 15 15 15 16 17 18 19 19 19 19 20 21 22 22 23 23 23 23 23 24 24 24 24 25 25 25 26 26 27 28 29 29
17 17 17 17 17 17 16 17 16 16 16 16 16 17 17 18 19 20 20 20 21 21 22 23 23 23 23 24 25 25 25 25 25 26 27 27 28 28 28 29 30 31 31
19 20 20 19 18 19 19 19 19 18 18 18 18 18 19 20 21 21 21 21 22 23 23 24 24 23 23 25 26 26 26 26 27 28 29 29 29 30 30 30 31 31 31
21 20 21 20 20 20 20 20 20 20 20 20 20 21 21 21 22 22 23 23 23 24 24 25 25 25 25 26 27 27 27 28 29 29 30 30 30 30 31 31 31 32 32
22 21 21 20 19 20 20 20 21 22 22 22 22 22 22 23 23 24 24 25 25 26 26 26 25 25 26 27 28 29 29 30 30 30 31 31 31 31 32 32 32 32 33
24 23 22 21 21 21 21 22 22 23 23 24 24 24 24 24 25 25 25 26 26 27 27 27 27 28 28 29 29 30 30 31 31 31 31 32 32 33 33 33 33 33 33
25 25 25 23 23 23 23 24 24 25 25 26 26 26 26 27 27 27 27 28 28 29 29 29 29 29 30 31 31 32 32 32 32 32 32 33 33 33 33 34 34 35 35
Wind_Direction
143 153 156 160 154 151 150 157 168 169 165 171 177 184 195 203 218 227 237 245 250 253 253 249 248 249 251 256 261 259 259 261 261 261 265 268 275 279 279 280 280 281 283
154 160 159 167 166 167 171 175 176 174 180 188 196 205 211 222 241 255 260 259 257 258 260 256 256 260 264 265 267 268 259 261 263 262 267 270 275 278 279 280 278 278 280
149 155 168 176 183 182 183 185 189 194 201 206 213 226 234 245 254 257 257 261 261 259 262 262 264 269 271 272 271 266 262 263 263 265 269 273 276 278 278 278 278 279 279
164 177 178 193 199 201 198 195 199 203 210 218 230 245 253 258 262 260 259 262 263 265 264 262 265 270 273 274 270 264 264 264 264 267 269 273 276 277 276 278 278 278 279
145 166 185 195 206 210 208 207 208 217 229 240 250 259 261 261 265 264 264 264 266 269 266 265 267 271 272 272 272 267 268 268 269 270 271 273 275 275 276 277 277 277 279
159 180 193 201 215 220 221 223 230 236 244 252 262 266 267 267 268 270 268 265 266 268 270 272 275 275 275 273 272 273 273 273 273 273 274 275 275 276 277 277 277 277 278
229 208 208 220 235 236 236 240 244 245 248 254 264 270 267 270 271 274 272 270 270 271 273 274 277 277 275 273 274 276 276 276 274 275 276 276 278 278 276 276 276 276 278
254 225 229 245 255 257 258 256 255 256 259 261 267 272 276 276 276 277 278 276 274 275 276 275 278 279 279 279 277 277 276 278 277 276 277 277 278 278 276 277 278 276 276
315 269 261 263 266 269 273 269 269 272 272 269 268 272 275 281 281 282 282 280 276 276 277 280 280 280 280 282 280 281 279 277 277 277 277 278 279 279 278 279 279 278 278
328 310 283 275 275 278 281 278 274 274 275 273 273 275 277 281 283 284 287 286 282 278 275 277 279 278 279 281 282 284 282 280 278 279 278 277 278 279 278 279 278 277 278
330 318 302 285 282 282 283 281 277 276 278 279 279 279 279 280 282 283 285 286 285 282 277 275 277 277 279 280 280 281 282 280 280 280 281 280 277 278 280 278 278 279 280
319 313 308 298 291 290 288 287 283 280 279 281 281 282 283 283 283 282 281 282 283 284 281 277 277 277 277 279 280 279 283 281 282 281 282 282 279 279 279 277 279 278 280
312 308 307 306 299 289 290 290 288 287 286 285 283 283 284 285 283 282 282 283 284 284 284 281 279 277 276 278 280 281 283 282 281 283 282 280 279 280 279 277 277 279 281
311 309 308 306 305 297 291 292 292 291 290 290 288 286 286 285 283 280 281 283 284 286 285 282 280 278 277 277 279 281 284 284 284 282 281 279 278 279 280 279 278 280 282
319 315 312 308 305 304 302 293 292 292 291 292 291 289 288 286 286 282 281 283 284 285 285 283 282 282 279 276 277 278 281 283 283 280 280 279 279 279 279 282 281 281 282
325 320 316 314 312 309 310 306 298 295 296 296 293 291 290 285 286 285 284 285 285 284 283 283 283 281 281 279 277 278 279 281 281 280 281 282 281 279 279 282 283 282 283
322 323 320 316 314 309 308 308 306 302 302 303 299 294 294 289 291 289 291 291 287 286 285 286 283 281 281 282 280 280 282 283 282 282 282 281 282 281 280 282 284 283 284
318 316 313 311 309 309 307 305 306 305 305 305 301 296 294 293 290 289 291 290 288 287 287 287 285 281 281 283 281 282 282 282 282 283 283 282 283 284 283 283 284 284 285
310 310 309 306 303 303 303 304 305 305 304 304 302 297 294 295 292 291 292 290 289 289 288 286 285 283 281 280 280 281 282 282 282 283 284 284 284 284 284 283 283 284 285
305 304 304 304 299 298 298 298 300 301 303 304 303 300 298 297 294 293 293 292 290 291 291 289 287 286 283 281 279 280 281 282 283 283 284 284 285 286 286 285 285 285 285
299 297 297 299 296 295 296 297 297 297 299 301 302 301 300 299 299 296 295 294 294 293 292 291 290 289 289 285 281 282 282 283 283 284 285 284 284 286 285 285 285 285 284
297 295 289 290 291 290 289 291 294 294 297 299 299 300 301 301 299 298 296 294 293 293 293 292 290 289 288 287 285 284 283 283 284 285 285 286 286 286 286 285 285 285 286
295 298 296 289 287 288 290 289 290 292 294 296 297 297 298 300 299 298 296 294 294 294 293 293 291 289 288 287 287 286 286 286 286 286 286 287 287 287 287 286 286 286 286
290 294 295 294 291 294 293 290 288 290 293 294 294 295 298 299 299 299 296 293 293 294 294 293 292 292 290 288 288 287 287 287 287 287 287 287 286 287 287 286 286 286 287
287 289 291 293 293 292 292 292 291 288 289 291 293 295 296 296 297 297 296 295 295 295 293 292 291 291 289 289 289 289 288 287 287 288 288 288 287 287 286 286 286 286 286
284 286 287 287 288 289 289 289 291 288 288 289 290 293 294 294 294 295 295 295 294 294 293 293 292 291 290 289 288 288 288 288 287 288 289 289 288 287 286 286 286 286 286
Height
5884 5885 5885 5886 5887 5888 5888 5889 5890 5891 5892 5893 5894 5895 5895 5896 5896 5897 5897 5897 5898 5898 5899 5899 5899 5900 5900 5900 5900 5900 5901 5901 5901 5902 5902 5902 5902 5902 5902 5902 5902 5902 5902
5884 5885 5886 5886 5887 5888 5889 5889 5890 5891 5892 5893 5894 5895 5895 5896 5896 5896 5897 5897 5897 5898 5898 5898 5898 5899 5899 5899 5899 5899 5899 5900 5900 5900 5900 5900 5900 5900 5900 5900 5900 5900 5900
5884 5885 5886 5887 5887 5888 5889 5889 5890 5891 5892 5893 5894 5894 5895 5895 5895 5895 5896 5896 5896 5897 5897 5897 5897 5897 5897 5897 5897 5897 5897 5898 5898 5898 5898 5898 5898 5898 5898 5898 5898 5898 5898
5884 5885 5886 5887 5888 5888 5889 5889 5890 5891 5892 5892 5893 5894 5894 5894 5894 5894 5895 5895 5895 5895 5895 5896 5896 5896 5895 5895 5895 5895 5895 5895 5896 5896 5896 5896 5896 5896 5895 5895 5895 5895 5895
5884 5885 5886 5887 5887 5888 5888 5889 5890 5891 5891 5892 5892 5893 5893 5893 5893 5893 5893 5893 5894 5894 5894 5894 5894 5894 5893 5893 5893 5893 5893 5893 5893 5893 5893 5893 5893 5893 5893 5893 5892 5892 5892
5885 5885 5886 5887 5887 5888 5888 5889 5889 5890 5890 5891 5891 5891 5891 5892 5892 5892 5892 5892 5892 5892 5892 5892 5892 5892 5891 5891 5891 5891 5891 5890 5890 5890 5890 5890 5890 5889 5889 5889 5889 5889 5889
5885 5885 5886 5887 5887 5887 5888 5888 5888 5889 5889 5890 5890 5890 5890 5890 5890 5890 5890 5890 5890 5890 5890 5890 5890 5889 5889 5889 5889 5888 5888 5887 5887 5887 5887 5886 5886 5886 5886 5885 5885 5885 5885
5885 5885 5886 5886 5886 5887 5887 5887 5888 5888 5888 5888 5889 5889 5889 5889 5889 5888 5888 5888 5888 5888 5887 5887 5887 5887 5886 5886 5886 5885 5885 5884 5884 5883 5883 5883 5882 5882 5882 5882 5881 5881 5880
5885 5885 5886 5886 5886 5886 5886 5887 5887 5887 5887 5887 5887 5887 5887 5887 5886 5886 5886 5885 5885 5885 5885 5884 5884 5884 5883 5883 5882 5882 5881 5881 5880 5880 5879 5879 5879 5878 5878 5877 5877 5876 5876
5885 5885 5885 5885 5885 5885 5885 5885 5885 5885 5885 5885 5885 5885 5885 5885 5884 5884 5883 5883 5882 5882 5882 5881 5881 5880 5880 5879 5879 5878 5877 5877 5876 5876 5875 5875 5874 5874 5873 5873 5873 5872 5872
5885 5885 5884 5884 5884 5884 5884 5884 5884 5884 5883 5883 5883 5883 5882 5882 5882 5881 5881 5880 5879 5879 5878 5878 5877 5877 5876 5876 5875 5874 5873 5873 5872 5871 5871 5870 5870 5869 5869 5868 5868 5867 5867
5885 5884 5883 5883 5882 5882 5882 5882 5882 5881 5881 5881 5881 5880 5880 5880 5879 5879 5878 5877 5876 5876 5875 5874 5874 5873 5872 5872 5871 5870 5870 5869 5868 5867 5867 5866 5865 5865 5864 5864 5863 5862 5862
5884 5883 5882 5882 5881 5880 5880 5880 5879 5879 5878 5878 5878 5877 5877 5877 5876 5876 5875 5874 5873 5872 5872 5871 5870 5869 5869 5868 5867 5867 5866 5865 5864 5863 5862 5861 5861 5860 5859 5859 5858 5858 5857
5883 5882 5881 5880 5879 5879 5878 5877 5877 5876 5876 5875 5875 5874 5873 5873 5872 5872 5871 5871 5870 5869 5868 5867 5866 5865 5865 5864 5863 5862 5862 5861 5859 5859 5858 5857 5856 5856 5855 5854 5853 5853 5852
5882 5881 5879 5879 5878 5877 5876 5875 5875 5874 5873 5872 5871 5871 5870 5869 5868 5868 5867 5867 5866 5865 5864 5862 5862 5861 5860 5859 5859 5858 5857 5856 5855 5854 5853 5852 5851 5851 5850 5849 5848 5847 5846
5881 5880 5878 5877 5876 5875 5874 5873 5872 5871 5870 5869 5868 5867 5866 5865 5864 5864 5863 5862 5861 5860 5859 5858 5857 5856 5855 5855 5854 5853 5852 5851 5850 5850 5849 5847 5846 5845 5845 5844 5843 5842 5840
5880 5879 5877 5875 5874 5873 5871 5871 5870 5868 5867 5866 5865 5864 5863 5862 5861 5860 5859 5858 5857 5856 5855 5854 5853 5852 5851 5850 5849 5848 5847 5846 5845 5844 5843 5842 5841 5840 5839 5838 5837 5835 5834
5879 5877 5875 5874 5872 5871 5869 5868 5867 5866 5865 5863 5862 5861 5860 5859 5858 5856 5855 5854 5853 5852 5851 5849 5848 5847 5846 5845 5844 5843 5842 5841 5840 5839 5837 5836 5835 5834 5833 5832 5830 5829 5827
5877 5875 5873 5872 5870 5868 5867 5866 5865 5863 5862 5860 5859 5858 5856 5855 5854 5853 5851 5850 5848 5847 5846 5844 5843 5842 5840 5839 5838 5837 5836 5835 5834 5833 5831 5830 5829 5828 5826 5825 5824 5822 5820
5873 5872 5870 5869 5867 5865 5864 5863 5862 5860 5859 5857 5856 5854 5853 5851 5850 5848 5847 5845 5844 5842 5841 5839 5838 5836 5834 5833 5832 5831 5830 5829 5828 5827 5825 5824 5822 5821 5819 5818 5816 5815 5813
5869 5867 5866 5865 5863 5862 5860 5859 5858 5857 5855 5853 5852 5850 5849 5847 5845 5844 5842 5841 5839 5837 5835 5834 5832 5830 5828 5827 5826 5825 5824 5823 5821 5820 5819 5817 5815 5814 5812 5810 5809 5807 5805
5864 5863 5861 5860 5859 5857 5856 5854 5853 5852 5851 5849 5848 5846 5844 5842 5840 5839 5837 5835 5833 5832 5829 5828 5826 5824 5822 5821 5819 5818 5817 5816 5815 5814 5812 5810 5808 5806 5804 5802 5800 5798 5796
5859 5857 5855 5853 5853 5851 5850 5849 5848 5847 5846 5844 5842 5841 5839 5837 5835 5833 5831 5829 5827 5825 5823 5822 5820 5818 5816 5815 5813 5811 5810 5809 5807 5806 5804 5802 5800 5798 5795 5793 5791 5789 5788
5853 5852 5849 5848 5847 5846 5844 5843 5842 5841 5840 5838 5836 5834 5833 5831 5829 5827 5825 5823 5821 5819 5817 5815 5813 5811 5809 5808 5806 5804 5802 5801 5799 5797 5795 5794 5791 5789 5787 5785 5782 5780 5779
5847 5846 5844 5842 5841 5840 5839 5837 5836 5835 5833 5832 5830 5828 5827 5825 5823 5821 5819 5817 5815 5812 5810 5808 5805 5803 5802 5800 5798 5796 5794 5792 5790 5788 5786 5784 5782 5780 5778 5776 5773 5771 5769
5839 5838 5837 5836 5835 5834 5832 5831 5829 5828 5826 5825 5823 5822 5820 5818 5816 5814 5812 5810 5808 5805 5803 5800 5798 5796 5794 5792 5790 5788 5786 5783 5781 5779 5777 5775 5773 5770 5769 5766 5764 5762 5759